This is the latest recevied weather packets stored in our database for station/object SQ5DCP-1. If no packets are shown the sender has not sent any weather packets the latest 1 day(s).
| Time | Temp. | Humidity | Pressure | Rain* | Wind** | Luminosity | Snow |
|---|---|---|---|---|---|---|---|
| 1777998325 | 25° C | 28% | 1007 hPa | 0 mm | 0.89 m/s, 156° | - | - |
| 1777998021 | 25° C | 27% | 1007 hPa | 0 mm | 0.89 m/s, 168° | - | - |
| 1777997719 | 25° C | 27% | 1007 hPa | 0 mm | 0.89 m/s, 164° | - | - |
| 1777997449 | - | - | - | - | 26.82 m/s, 168° | - | - |
| 1777997417 | 25° C | 27% | 1007.1 hPa | 0 mm | 0.89 m/s, 168° | - | - |
| 1777997136 | 25° C | 27% | 1007.1 hPa | 0 mm | 0.45 m/s, 143° | - | - |
| 1777996834 | 25° C | 27% | 1007.2 hPa | 0 mm | 0.45 m/s, 158° | - | - |
| 1777996539 | 25° C | 26% | 1007.1 hPa | 0 mm | 0.89 m/s, 157° | - | - |
| 1777996230 | 25° C | 26% | 1007.2 hPa | 0 mm | 0.89 m/s, 147° | - | - |
| 1777995929 | 25° C | 26% | 1007.3 hPa | 0 mm | 0.45 m/s, 145° | - | - |
| 1777995626 | 25° C | 25% | 1007.4 hPa | 0 mm | 0.45 m/s, 136° | - | - |
| 1777995324 | 25.56° C | 25% | 1007.3 hPa | 0 mm | 0.89 m/s, 165° | - | - |
| 1777995022 | 25.56° C | 26% | 1007.4 hPa | 0 mm | 0.89 m/s, 135° | - | - |
| 1777994720 | 25.56° C | 26% | 1007.5 hPa | 0 mm | 0.45 m/s, 161° | - | - |
| 1777994418 | 25.56° C | 25% | 1007.5 hPa | 0 mm | 0.89 m/s, 171° | - | - |
| 1777994116 | 25.56° C | 24% | 1007.6 hPa | 0 mm | 1.79 m/s, 171° | - | - |
| 1777993835 | 25.56° C | 25% | 1007.7 hPa | 0 mm | 1.34 m/s, 180° | - | - |
| 1777993532 | 25.56° C | 25% | 1007.7 hPa | 0 mm | 1.79 m/s, 180° | - | - |
| 1777993231 | 26.11° C | 26% | 1007.7 hPa | 0 mm | 1.79 m/s, 186° | - | - |
| 1777992929 | 26.11° C | 25% | 1007.8 hPa | 0 mm | 1.79 m/s, 196° | - | - |
| 1777992627 | 26.11° C | 25% | 1007.9 hPa | 0 mm | 1.79 m/s, 198° | - | - |
| 1777992325 | 26.11° C | 25% | 1007.8 hPa | 0 mm | 2.24 m/s, 169° | - | - |
| 1777992023 | 26.11° C | 24% | 1008 hPa | 0 mm | 2.24 m/s, 177° | - | - |
| 1777991722 | 26.11° C | 24% | 1007.9 hPa | 0 mm | 2.24 m/s, 208° | - | - |
| 1777991419 | 26.11° C | 25% | 1008 hPa | 0 mm | 2.68 m/s, 188° | - | - |
* Rain latest hour (hover to see other rain measurements)
** Current wind speed in m/s (hover to see current wind gust speed)